Location: Santa Cristina
(46.5667°N, 11.7167°E)
Time: 05:07:27
(UTC+00:00)

Cosmos 1378 Rocket - Pass Details

Date: 21 April 2021
Orbit: 600 x 628 km, 82.5° (Epoch: 14 May)

Event Time Altitude Azimuth Distance (km) Brightness Sun altitude
Exits shadow 02:42:23 - 175° (S) 2,354 6.2 -15.0°
Reaches altitude 10° 02:43:18 10° 173° (S) 1,990 5.9 -14.9°
Maximum altitude 02:47:37 57° 95° (E) 732 4.2 -14.3°
Drops below altitude 10° 02:51:56 10° 17° (NNE) 1,990 6.9 -13.6°
Sets 02:54:11 0° 13° (NNE) 2,896 7.8 -13.3°
